Estación de San Nicolás
Ultimos registro cada 15 minutos 62
| N° | Estación | Fecha / Hora | Temperatura | Humedad | Lluvia | Velocidad | Dirección | Radiación | Presion |
| 62 | San Nicolás | 09-05-2026 15:15 | 17,7 | 53 | 0 | 5,4 | 248 | 401 | 1016,6 |
| 61 | San Nicolás | 09-05-2026 15:00 | 17,4 | 55 | 0 | 2,2 | 217 | 279 | 1016,6 |
| 60 | San Nicolás | 09-05-2026 14:45 | 17,2 | 54 | 0 | 3,6 | 234 | 353 | 1016,9 |
| 59 | San Nicolás | 09-05-2026 14:30 | 16,8 | 53 | 0 | 2,2 | 242 | 290 | 1017,2 |
| 58 | San Nicolás | 09-05-2026 14:15 | 16,7 | 56 | 0 | 4 | 235 | 455 | 1017,3 |
| 57 | San Nicolás | 09-05-2026 14:00 | 16,4 | 56 | 0 | 2,2 | 261 | 401 | 1017,4 |
| 56 | San Nicolás | 09-05-2026 13:45 | 16 | 56 | 0 | 4,5 | 235 | 559 | 1017,6 |
| 55 | San Nicolás | 09-05-2026 13:30 | 15,7 | 57 | 0 | 3,6 | 229 | 575 | 1017,8 |
| 54 | San Nicolás | 09-05-2026 13:15 | 15,4 | 59 | 0 | 5,4 | 249 | 585 | 1018 |
| 53 | San Nicolás | 09-05-2026 13:00 | 14,9 | 59 | 0 | 4 | 228 | 592 | 1018,2 |
| 52 | San Nicolás | 09-05-2026 12:45 | 14,4 | 61 | 0 | 3,6 | 251 | 594 | 1018,4 |
| 51 | San Nicolás | 09-05-2026 12:30 | 14 | 64 | 0 | 4 | 232 | 594 | 1018,7 |
| 50 | San Nicolás | 09-05-2026 12:15 | 13,6 | 64 | 0 | 4,5 | 255 | 591 | 1019 |
| 49 | San Nicolás | 09-05-2026 12:00 | 13 | 63 | 0 | 4 | 238 | 582 | 1019,2 |
| 48 | San Nicolás | 09-05-2026 11:45 | 12,6 | 67 | 0 | 3,1 | 244 | 570 | 1019,1 |
| 47 | San Nicolás | 09-05-2026 11:30 | 11,8 | 70 | 0 | 3,1 | 248 | 554 | 1019,3 |
| 46 | San Nicolás | 09-05-2026 11:15 | 11,3 | 73 | 0 | 4 | 246 | 534 | 1019,6 |
| 45 | San Nicolás | 09-05-2026 11:00 | 10,5 | 76 | 0 | 2,2 | 231 | 510 | 1019,4 |
| 44 | San Nicolás | 09-05-2026 10:45 | 9,7 | 79 | 0 | 3,1 | 255 | 485 | 1019,7 |
| 43 | San Nicolás | 09-05-2026 10:30 | 8,9 | 79 | 0 | 4,5 | 254 | 454 | 1019,8 |
| 42 | San Nicolás | 09-05-2026 10:15 | 8,3 | 81 | 0 | 3,1 | 218 | 418 | 1019,7 |
| 41 | San Nicolás | 09-05-2026 10:00 | 7,7 | 84 | 0 | 1,8 | 242 | 383 | 1020,1 |
| 40 | San Nicolás | 09-05-2026 09:45 | 7,1 | 87 | 0 | 2,7 | 232 | 336 | 1020,1 |
| 39 | San Nicolás | 09-05-2026 09:30 | 6,3 | 90 | 0 | 1,8 | 230 | 297 | 1020 |
| 38 | San Nicolás | 09-05-2026 09:15 | 5,7 | 91 | 0 | 2,7 | 247 | 260 | 1020 |
| 37 | San Nicolás | 09-05-2026 09:00 | 5,1 | 93 | 0 | 1,3 | 250 | 221 | 1020 |
| 36 | San Nicolás | 09-05-2026 08:45 | 4,5 | 94 | 0 | 3,1 | 271 | 178 | 1020,2 |
| 35 | San Nicolás | 09-05-2026 08:30 | 3,3 | 95 | 0 | 1,8 | 257 | 86 | 1019,7 |
| 34 | San Nicolás | 09-05-2026 08:15 | 3,3 | 95 | 0 | 1,8 | 257 | 86 | 1019,7 |
| 33 | San Nicolás | 09-05-2026 08:00 | 3,1 | 95 | 0 | 0,4 | 257 | 47 | 1019,6 |
| 32 | San Nicolás | 09-05-2026 07:45 | 3,1 | 94 | 0 | 0,9 | 257 | 16 | 1019,6 |
| 31 | San Nicolás | 09-05-2026 07:30 | 3,1 | 95 | 0 | 1,8 | 257 | 0 | 1019,6 |
| 30 | San Nicolás | 09-05-2026 07:15 | 3,2 | 95 | 0 | 0 | 259 | 0 | 1019,6 |
| 29 | San Nicolás | 09-05-2026 07:00 | 3,2 | 95 | 0 | 0 | 259 | 0 | 1019,7 |
| 28 | San Nicolás | 09-05-2026 06:45 | 3,2 | 95 | 0 | 0,9 | 259 | 0 | 1019,6 |
| 27 | San Nicolás | 09-05-2026 06:30 | 3,3 | 94 | 0 | 0 | 259 | 0 | 1019,7 |
| 26 | San Nicolás | 09-05-2026 06:15 | 3,6 | 95 | 0 | 0 | 259 | 0 | 1019,6 |
| 25 | San Nicolás | 09-05-2026 06:00 | 3,9 | 95 | 0 | 0 | 259 | 0 | 1019,7 |
| 24 | San Nicolás | 09-05-2026 05:45 | 4 | 95 | 0 | 0,4 | 259 | 0 | 1019,9 |
| 23 | San Nicolás | 09-05-2026 05:30 | 4,3 | 95 | 0 | 0,4 | 259 | 0 | 1020,1 |
| 22 | San Nicolás | 09-05-2026 05:15 | 4,4 | 95 | 0 | 1,3 | 261 | 0 | 1020 |
| 21 | San Nicolás | 09-05-2026 05:00 | 4,4 | 95 | 0 | 0,4 | 255 | 0 | 1020,2 |
| 20 | San Nicolás | 09-05-2026 04:45 | 4,4 | 95 | 0 | 0,9 | 255 | 0 | 1020,2 |
| 19 | San Nicolás | 09-05-2026 04:30 | 4,8 | 94 | 0 | 1,3 | 255 | 0 | 1020,2 |
| 18 | San Nicolás | 09-05-2026 04:15 | 4,9 | 95 | 0 | 0,9 | 253 | 0 | 1020,3 |
| 17 | San Nicolás | 09-05-2026 04:00 | 5 | 95 | 0 | 0,9 | 253 | 0 | 1020,3 |
| 16 | San Nicolás | 09-05-2026 03:45 | 5,2 | 95 | 0,3 | 0 | 253 | 0 | 1020,2 |
| 15 | San Nicolás | 09-05-2026 03:30 | 5,4 | 94 | 0 | 0,4 | 253 | 0 | 1020,3 |
| 14 | San Nicolás | 09-05-2026 03:15 | 5,7 | 95 | 0 | 0,4 | 253 | 0 | 1020,5 |
| 13 | San Nicolás | 09-05-2026 03:00 | 5,8 | 95 | 0 | 0,4 | 253 | 0 | 1020,5 |
| 12 | San Nicolás | 09-05-2026 02:45 | 5,9 | 94 | 0 | 0 | 249 | 0 | 1020,6 |
| 11 | San Nicolás | 09-05-2026 02:30 | 6,1 | 94 | 0 | 0 | 250 | 0 | 1020,7 |
| 10 | San Nicolás | 09-05-2026 02:15 | 6,3 | 94 | 0 | 0,4 | 250 | 0 | 1021,1 |
| 9 | San Nicolás | 09-05-2026 02:00 | 6,7 | 94 | 0 | 0 | 250 | 0 | 1021,1 |
| 8 | San Nicolás | 09-05-2026 01:45 | 7,2 | 94 | 0 | 0,4 | 250 | 0 | 1021,1 |
| 7 | San Nicolás | 09-05-2026 01:30 | 7,5 | 94 | 0 | 1,3 | 245 | 0 | 1021 |
| 6 | San Nicolás | 09-05-2026 01:15 | 7,7 | 94 | 0 | 0,9 | 234 | 0 | 1021,2 |
| 5 | San Nicolás | 09-05-2026 01:00 | 7,9 | 94 | 0 | 1,3 | 279 | 0 | 1021,2 |
| 4 | San Nicolás | 09-05-2026 00:45 | 8,2 | 94 | 0 | 1,3 | 244 | 0 | 1021,1 |
| 3 | San Nicolás | 09-05-2026 00:30 | 8,2 | 94 | 0 | 1,3 | 259 | 0 | 1021 |
| 2 | San Nicolás | 09-05-2026 00:15 | 8,4 | 94 | 0 | 1,8 | 258 | 0 | 1021,1 |
| 1 | San Nicolás | 09-05-2026 00:00 | 8,5 | 94 | 0 | 0,4 | 261 | 0 | 1021,2 |